Location: Rumah Long Bangan
(2.8362°N, 113.7519°E)
Time: 05:42:04
(UTC+00:00)

YAOGAN 6 - Pass Details

Date: 24 October 2021
Orbit: 464 x 499 km, 97.1° (Epoch: 28 November)

Event Time Altitude Azimuth Distance (km) Brightness Sun altitude
Rises 21:10:30 0° 8° (N) 2,532 6.2 -14.9°
Reaches altitude 10° 21:12:32 10° 6° (N) 1,661 5.2 -14.4°
Maximum altitude 21:16:07 76° 280° (W) 507 2.4 -13.5°
Drops below altitude 10° 21:19:44 10° 195° (SSW) 1,686 5.3 -12.7°
Sets 21:21:49 0° 193° (SSW) 2,574 6.2 -12.2°
